Weather History for LTCI - October, 2012

Change the Weather History Date:

Monday, October 15, 2012

  Actual Average Record
Temperature  
Mean Temperature 52 °F -  
Max Temperature 65 °F 56 °F 75 °F (2005)
Min Temperature 38 °F 36 °F 35 °F (2013)
Degree Days  
Heating Degree Days 14    
Growing Degree Days 2 (Base 50)    
Moisture  
Dew Point 38 °F    
Average Humidity 58    
Maximum Humidity 87    
Minimum Humidity 25    
Precipitation  
Precipitation 0.00 in 0.06 in - ()
Sea Level Pressure  
Sea Level Pressure 30.26 in    
Wind  
Wind Speed 3 mph ()    
Max Wind Speed 8 mph    
Max Gust Speed -    
Visibility 6.2 miles    
Events      
Averages and records for this station are not official NWS values.
T = Trace of Precipitation, MM = Missing Value Source: Averaged Metar Reports

Daily Weather History Graph

Daily Weather History Graph

Search for Another Location

Airport or City:

Trip Planner

Search our weather history database for the weather conditions in past years. The results will help you decide how hot, cold, wet, or windy it might be!

Date:

Astronomy

Oct. 15, 2012 Rise Set
Actual Time 6:15 AM EEST 5:28 PM EEST
Civil Twilight 5:49 AM EEST 5:54 PM EEST
Nautical Twilight 5:18 AM EEST 6:25 PM EEST
Astronomical Twilight 4:47 AM EEST 6:56 PM EEST
Moon 5:59 AM EEST (10/15) 5:13 PM EEST (10/15)
Length of Visible Light 12h 05m
Length of Day
11h 12m
Waning Crescent, 0% of the Moon is Illuminated
Oct 15
Waning Crescent
Oct 15
New
Oct 22
First Quarter
Oct 29
Full
Nov 7
Last Quarter

Hourly Weather History & Observations

Time (EEST) Temp. Windchill Dew Point Humidity Pressure Visibility Wind Dir Wind Speed Gust Speed Precip Events Conditions
12:50 AM 42.8 °F - 37.4 °F 81% 30.24 in 6.2 mi Variable 1.2 mph - N/A   Partly Cloudy
1:50 AM 42.8 °F 41.1 °F 39.2 °F 87% 30.24 in 6.2 mi ENE 3.5 mph - N/A   Partly Cloudy
3:00 AM 42 °F - 38 °F 79%  in 6 mi East 3.5 mph - -   Scattered Clouds
3:50 AM 41.0 °F 39.0 °F 35.6 °F 81% 30.24 in 6.2 mi East 3.5 mph - N/A   Partly Cloudy
4:50 AM 39.2 °F 37.0 °F 35.6 °F 87% 30.24 in 6.2 mi East 3.5 mph - N/A   Partly Cloudy
5:50 AM 39.2 °F 37.0 °F 35.6 °F 87% 30.24 in 6.2 mi ENE 3.5 mph - N/A   Partly Cloudy
6:50 AM 42.8 °F 41.1 °F 35.6 °F 76% 30.24 in 6.2 mi East 3.5 mph - N/A   Partly Cloudy
7:50 AM 53.6 °F - 37.4 °F 54% 30.27 in 6.2 mi NE 4.6 mph - N/A   Partly Cloudy
8:50 AM 60.8 °F - 33.8 °F 36% 30.27 in 6.2 mi Variable 1.2 mph - N/A   Partly Cloudy
9:00 AM 61 °F - 34 °F 25%  in 7 mi ENE 1.2 mph - -   Scattered Clouds
9:50 AM 59.0 °F - 37.4 °F 45% 30.27 in 6.2 mi Variable 5.8 mph - N/A   Partly Cloudy
10:50 AM 60.8 °F - 41.0 °F 48% 30.27 in 6.2 mi West 5.8 mph - N/A   Partly Cloudy
11:50 AM 62.6 °F - 41.0 °F 45% 30.24 in 6.2 mi West 5.8 mph - N/A   Partly Cloudy
12:50 PM 62.6 °F - 41.0 °F 45% 30.24 in 6.2 mi West 8.1 mph - N/A   Partly Cloudy
1:50 PM 64.4 °F - 41.0 °F 42% 30.24 in 6.2 mi West 6.9 mph - N/A   Partly Cloudy
2:50 PM 66.2 °F - 41.0 °F 40% 30.24 in 6.2 mi West 8.1 mph - N/A   Partly Cloudy
3:00 PM 65 °F - 40 °F 28%  in 6 mi West 8.1 mph - -   Scattered Clouds
3:50 PM 64.4 °F - 37.4 °F 37% 30.24 in 6.2 mi West 8.1 mph - N/A   Partly Cloudy
4:50 PM 62.6 °F - 39.2 °F 42% 30.24 in 6.2 mi WSW 5.8 mph - N/A   Partly Cloudy
5:50 PM 55.4 °F - 39.2 °F 54% 30.24 in 6.2 mi SSE 4.6 mph - N/A   Partly Cloudy
6:50 PM 51.8 °F - 41.0 °F 67% 30.27 in 6.2 mi East 2.3 mph - N/A   Partly Cloudy
7:50 PM 50.0 °F - 35.6 °F 58% 30.27 in 6.2 mi East 2.3 mph - N/A   Partly Cloudy
8:50 PM 46.4 °F - 35.6 °F 66% 30.27 in 6.2 mi Variable 2.3 mph - N/A   Partly Cloudy
9:00 PM 47 °F - 36 °F 54%  in 6 mi SE 2.3 mph - -   Scattered Clouds
9:50 PM 46.4 °F - 35.6 °F 66% 30.27 in 6.2 mi East 2.3 mph - N/A   Partly Cloudy
10:50 PM 44.6 °F - 35.6 °F 71% 30.30 in 6.2 mi Calm Calm - N/A   Partly Cloudy
11:50 PM 42.8 °F - 35.6 °F 76% 30.30 in 6.2 mi East 2.3 mph - N/A   Partly Cloudy